Date String (YYYY-MM-DD hh:mm:ss) UTC,Instrument flags,Ambient pressure (hPa),Sample flow (lpm),Bypass flow (lpm),Sample temperature (°C),Ambient temperature (°C),ASC tube jacket temperature (°C),LED temperature (°C),Box temperature (°C),Sample RH (%),Span deviation,Mass concentration (μg/m³),Mass concentration (μg/m³),Mass concentration (μg/m³)
DateTimeUTC,F1_M11,P_M11,Q1_M11,Q2_M11,T1_M11,T2_M11,T3_M11,T4_M11,T5_M11,U1_M11,ZSPAN_M11,X2_M11,X0_M11,X1_M11
2022-07-28 04:00:00,,0829.5,5.00,0.00,32.0,27.3,00.0,40.1,32.2,32.6,0000.0,0007.25,0013.58,0006.05
2022-07-28 04:01:00,,0829.5,5.00,0.00,31.8,27.3,00.0,40.0,32.1,33.0,0000.0,0007.23,0013.80,0006.04
2022-07-28 04:02:00,,0829.6,5.01,0.00,31.7,27.4,00.0,40.0,32.0,33.4,0000.0,0007.22,0013.72,0006.04
2022-07-28 04:03:00,,0829.5,5.00,0.00,31.6,27.6,00.0,40.0,32.0,33.5,0000.0,0007.20,0013.73,0006.03
2022-07-28 04:04:00,,0829.5,5.00,0.00,31.5,27.8,00.0,39.9,32.1,33.7,0000.0,0007.21,0014.01,0006.02
2022-07-28 04:05:00,,0829.5,5.01,0.00,31.4,28.0,00.0,39.9,32.1,33.9,0000.0,0007.21,0013.91,0006.01
2022-07-28 04:06:00,,0829.5,5.00,0.00,31.4,28.1,00.0,39.9,32.1,34.0,0000.0,0007.18,0013.51,0006.03
2022-07-28 04:07:00,,0829.5,4.99,0.00,31.3,28.3,00.0,39.8,32.2,33.8,0000.0,0007.15,0013.23,0006.06
2022-07-28 04:08:00,,0829.5,5.00,0.00,31.3,28.4,00.0,39.8,32.2,33.9,0000.0,0007.15,0013.39,0006.08
2022-07-28 04:09:00,,0829.4,5.01,0.00,31.3,28.5,00.0,39.8,32.2,33.8,0000.0,0007.15,0013.45,0006.09
2022-07-28 04:10:00,,0829.4,5.01,0.00,31.2,28.6,00.0,39.8,32.2,33.8,0000.0,0007.20,0012.91,0006.13
2022-07-28 04:11:00,,0829.3,5.00,0.00,31.2,28.7,00.0,39.7,32.3,33.8,0000.0,0007.26,0013.30,0006.17
2022-07-28 04:12:00,,0829.2,5.00,0.00,31.2,28.8,00.0,39.7,32.3,33.9,0000.0,0007.37,0012.99,0006.19
2022-07-28 04:13:00,,0829.2,4.99,0.00,31.2,28.5,00.0,39.7,32.3,33.9,0000.0,0007.45,0013.11,0006.23
2022-07-28 04:14:00,,0829.2,5.01,0.00,31.1,27.7,00.0,39.6,32.1,33.8,0000.0,0007.49,0013.15,0006.25
2022-07-28 04:15:00,,0829.3,5.00,0.00,31.0,27.3,00.0,39.5,32.0,33.8,0000.0,0007.53,0013.23,0006.27
2022-07-28 04:16:00,,0829.3,5.00,0.00,30.9,27.2,00.0,39.5,31.8,33.2,0000.0,0007.56,0013.04,0006.29
2022-07-28 04:17:00,,0829.3,5.01,0.00,30.8,27.3,00.0,39.4,31.7,32.1,0000.0,0007.52,0013.16,0006.27
2022-07-28 04:18:00,,0829.2,5.01,0.00,30.7,27.4,00.0,39.4,31.7,33.4,0000.0,0007.51,0013.61,0006.23
2022-07-28 04:19:00,,0829.2,4.99,0.00,30.6,27.6,00.0,39.4,31.8,34.4,0000.0,0007.48,0013.55,0006.22
2022-07-28 04:20:00,,0829.3,4.98,0.00,30.6,27.8,00.0,39.3,31.7,34.9,0000.0,0007.50,0013.37,0006.24
2022-07-28 04:21:00,,0829.4,5.01,0.00,30.6,27.9,00.0,39.3,31.9,35.3,0000.0,0007.57,0014.95,0006.26
2022-07-28 04:22:00,,0829.5,5.00,0.00,30.9,28.1,00.0,39.3,32.0,35.2,0000.0,0007.70,0016.59,0006.28
2022-07-28 04:23:00,,0829.6,4.99,0.00,31.2,28.2,00.0,39.3,32.2,35.4,0000.0,0007.78,0017.37,0006.31
2022-07-28 04:24:00,,0829.6,4.99,0.00,31.6,28.3,00.0,39.3,32.4,34.6,0000.0,0007.91,0018.10,0006.34
2022-07-28 04:25:00,,0829.7,5.01,0.00,31.8,28.4,00.0,39.3,32.4,34.0,0000.0,0008.13,0019.16,0006.38
2022-07-28 04:26:00,,0829.8,5.00,0.00,31.9,28.5,00.0,39.4,32.3,33.2,0000.0,0008.40,0019.84,0006.48
2022-07-28 04:27:00,,0829.9,5.01,0.00,32.0,28.6,00.0,39.4,32.3,32.9,0000.0,0008.70,0020.57,0006.60
2022-07-28 04:28:00,,0830.1,5.00,0.00,32.0,28.7,00.0,39.5,32.3,32.7,0000.0,0008.99,0021.28,0006.74
2022-07-28 04:29:00,,0830.2,5.00,0.00,32.0,28.6,00.0,39.6,32.3,32.9,0000.0,0009.19,0021.41,0006.88
2022-07-28 04:30:00,,0830.4,5.00,0.00,32.0,28.0,00.0,39.6,32.2,33.0,0002.1,0009.45,0022.37,0006.99
2022-07-28 04:31:00,,0830.6,5.00,0.00,31.9,27.3,00.0,39.6,32.0,33.4,0004.0,0009.68,0023.07,0007.09
2022-07-28 04:32:00,,0830.7,4.99,0.00,31.8,27.0,00.0,39.6,32.0,33.5,0004.3,0009.78,0022.05,0007.16
2022-07-28 04:33:00,,0830.8,5.01,0.00,31.6,27.0,00.0,39.6,31.8,34.2,0004.3,0009.94,0021.64,0007.27
2022-07-28 04:34:00,,0830.9,4.99,0.00,31.5,27.2,00.0,39.6,31.7,34.5,0004.0,0010.17,0022.29,0007.36
2022-07-28 04:35:00,,0830.9,5.00,0.00,31.4,27.3,00.0,39.6,31.7,34.6,0004.0,0010.26,0022.26,0007.44
2022-07-28 04:36:00,,0831.0,5.00,0.00,31.3,27.5,00.0,39.6,31.8,35.1,0004.0,0010.24,0021.88,0007.50
2022-07-28 04:37:00,,0831.0,5.00,0.00,31.4,27.7,00.0,39.6,31.9,34.9,0003.9,0010.19,0021.55,0007.49
2022-07-28 04:38:00,,0831.0,4.99,0.00,31.5,27.8,00.0,39.6,32.0,34.0,0003.6,0009.92,0021.16,0007.44
2022-07-28 04:39:00,,0831.0,5.01,0.00,31.6,28.0,00.0,39.6,32.0,33.3,0003.5,0009.71,0020.47,0007.35
2022-07-28 04:40:00,,0831.0,4.99,0.00,31.6,28.1,00.0,39.6,32.0,33.2,0003.6,0009.53,0019.82,0007.28
2022-07-28 04:41:00,,0831.0,5.00,0.00,31.6,28.2,00.0,39.6,32.0,33.5,0003.5,0009.38,0019.08,0007.21
2022-07-28 04:42:00,,0831.0,5.00,0.00,31.5,28.3,00.0,39.6,32.0,34.0,0003.7,0009.20,0018.96,0007.14
2022-07-28 04:43:00,,0831.0,5.00,0.00,31.5,28.4,00.0,39.6,32.1,35.4,0003.7,0009.08,0019.18,0007.09
2022-07-28 04:44:00,,0831.1,5.00,0.00,31.7,28.4,00.0,39.6,32.2,35.4,0003.5,0008.95,0018.64,0007.01
2022-07-28 04:45:00,,0831.2,5.00,0.00,31.9,28.5,00.0,39.7,32.4,34.8,0003.2,0008.74,0017.55,0006.93
2022-07-28 04:46:00,,0831.2,5.00,0.00,32.1,28.6,00.0,39.7,32.4,34.2,0002.7,0008.69,0016.98,0006.88
2022-07-28 04:47:00,,0831.2,5.00,0.00,32.2,28.6,00.0,39.7,32.4,33.4,0002.7,0008.63,0016.88,0006.82
2022-07-28 04:48:00,,0831.2,5.01,0.00,32.2,28.7,00.0,39.8,32.4,33.0,0003.1,0008.57,0017.28,0006.78
2022-07-28 04:49:00,,0831.2,4.99,0.00,32.2,28.7,00.0,39.9,32.3,33.2,0003.5,0008.76,0018.22,0006.80
2022-07-28 04:50:00,,0831.1,5.00,0.00,32.2,28.2,00.0,39.8,32.3,33.8,0003.7,0009.00,0018.84,0006.86
2022-07-28 04:51:00,,0831.0,5.02,0.00,32.1,27.6,00.0,39.8,32.1,33.7,0003.6,0009.15,0019.31,0006.88
2022-07-28 04:52:00,,0831.0,4.98,0.00,32.0,27.4,00.0,39.9,32.0,33.7,0003.5,0009.36,0020.17,0006.92
2022-07-28 04:53:00,,0831.0,5.02,0.00,31.8,27.4,00.0,39.9,31.9,33.3,0003.3,0009.49,0020.57,0006.94
2022-07-28 04:54:00,,0830.9,4.99,0.00,31.7,27.5,00.0,39.9,31.9,33.0,0003.1,0009.56,0020.06,0006.94
2022-07-28 04:55:00,,0830.9,5.01,0.00,31.6,27.6,00.0,39.8,31.9,32.8,0003.4,0009.52,0019.46,0006.93
2022-07-28 04:56:00,,0830.8,4.99,0.00,31.5,27.8,00.0,39.8,31.9,33.2,0004.0,0009.41,0019.01,0006.91
2022-07-28 04:57:00,,0830.7,5.01,0.00,31.5,27.9,00.0,39.8,31.9,33.5,0004.1,0009.22,0018.60,0006.87
2022-07-28 04:58:00,,0830.6,4.99,0.00,31.4,28.0,00.0,39.8,32.0,33.9,0003.9,0009.09,0018.11,0006.83
2022-07-28 04:59:00,,0830.5,5.00,0.00,31.3,28.1,00.0,39.8,32.0,34.2,0003.8,0008.95,0017.00,0006.79
